www.pogodaiklimat.ru

Погода и климат >> Архив погоды >> Россия >> Ставропольский край >> Благодарный


ПОГОДА в Благодарном

  • Прогноз погоды в Благодарном
  • Монитор погоды в Благодарном

АРХИВ ПОГОДЫ в Благодарном

Время (UTC), дата Ветер
(напр.,м/с)
 
Видим.   Явления Облачность Т
(С)
Тd
(С)
f
(%)
Тe
(С)
Тes
(С)
Комфортность P
(гПа)
Po
(гПа)
Тmin
(С)
Tmax
(С)
R
(мм)
R24
(мм)
S
(см)
18 19.05 штиль 0 20 км 10/6 600 м
[Sc Ac und]
+19.0 +15.7 81 +20 +20 1012.1 993.3
21 19.05 штиль 0 20 км 8/6 600 м
[Sc Ac trans]
+16.1 +14.1 88 +16 +16 1012.6 993.6
00 20.05 В 1 20 км 6/3 600 м
[Sc Ac trans]
+14.9 +10.2 73 +15 +15 1013.2 994.0
03 20.05 штиль 0 20 км 8/0
[Cc]
+15.4 +11.3 77 +15 +17 1013.7 994.6 +13.3
06 20.05 СВ 1 20 км 10/10 600 м
[Sc]
+19.3 +8.9 51 +21 +21 комфорт 1015.0 996.1
09 20.05 В 2 20 км 8/3 600 м
[Sc Ac trans Ci fib]
+25.5 +11.0 40 +27 +35 жарко 1015.3 996.8
12 20.05 СВ 2 20 км 3/3 600 м
[Cu med, cong Ci fib]
+27.1 +7.3 28 +27 +35 жарко 1014.8 996.4
15 20.05 СВ 2 20 км 9/9 600 м
[Sc]
+25.0 +7.4 32 +25 +25 комфорт 1015.4 996.8 +27.5
18 20.05 В 3 20 км 3/3 600 м
[Sc]
+19.5 +5.8 41 +20 +20 1017.5 998.6
21 20.05 СВ 2 20 км ясно +13.9 +2.5 46 +14 +14 1019.1 999.7
00 21.05 СЗ 1 20 км 3/3 600 м
[Sc]
+9.9 +1.7 57 +10 +10 1019.9 1000.2
03 21.05 штиль 0 20 км ясно +10.9 +4.2 63 +11 +12 1020.6 1001.0 +7.2
06 21.05 В 4 20 км ясно +20.4 +5.6 38 +21 +29 комфорт 1020.0 1001.0
09 21.05 В 4
{10}
20 км 1/1 600 м
[Cu hum]
+23.6 +10.1 42 +25 +36 комфорт 1019.2 1000.5
12 21.05 ЮВ 3
{10}
20 км 3/3 600 м
[Cu hum]
+25.9 +7.6 31 +26 +33 жарко 1018.1 999.6
15 21.05 В 4 20 км 3/3 600 м
[Cu hum]
+24.2 +8.6 37 +25 +26 комфорт 1017.5 998.8 +26.0
18 21.05 В 3 20 км ясно +18.2 +8.1 52 +19 +19 1019.2 1000.1
21 21.05 В 2 20 км ясно +14.6 +7.5 62 +14 +14 1019.5 1000.2
00 22.05 В 2 20 км 3/0
[Ci sp]
+10.5 +6.8 78 +9 +9 1019.2 999.6
03 22.05 СВ 1 20 км 3/3 600 м
[Sc]
+9.1 +7.0 87 +8 +9 1018.9 999.2 +8.9
06 22.05 ЮВ 4 20 км 3/3 600 м
[Sc]
+17.6 +7.2 50 +17 +23 1016.7 997.7
09 22.05 В 3
{10}
20 км 9/9 600 м
[Sc]
+21.4 +7.6 41 +22 +24 комфорт 1014.6 995.8
12 22.05 ЮВ 2 20 км 10/10 600 м
[Sc]
+22.5 +7.3 38 +23 +23 комфорт 1014.5 995.7
15 22.05 В 3 20 км в посл. час ливневой дождь 10/10 600 м
[Cb calv]
+16.8 +13.1 79 +17 +17 1013.7 994.7 +23.0 0.5
18 22.05 З 1 20 км {ливн. осадки} 10/10 600 м
[Sc]
+15.7 +13.3 86 +16 +16 1015.1 996.0
21 22.05 В 1 20 км 3/0
[Ci fib]
+12.2 +12.0 99 +12 +12 1014.5 995.1
00 23.05 З 1 20 км ясно +10.3 +10.3 100 +10 +10 1014.4 994.9
03 23.05 штиль 0 20 км {туман} ясно +10.1 +10.1 100 +9 +11 1014.4 994.9 +9.3 0.3
06 23.05 Ю 1 20 км 4/0
[Ac trans]
+21.2 +14.1 64 +24 +34 комфорт 1012.6 993.9
09 23.05 СЗ 3 10 км гроза, ливневой дождь 10/10 600 м
[Cb cap]
+17.9 +10.9 64 +18 +18 1011.7 992.8
12 23.05 Ю 1 20 км {гроза, ливн. осадки} 8/8 600 м
[Sc]
+20.8 +13.0 61 +24 +27 комфорт 1010.5 991.8
15 23.05 С 5
{11}
20 км 8/3 600 м
[Sc Ac trans Ci fib]
+20.3 +10.2 52 +22 +22 комфорт 1011.0 992.2 +24.5 3
18 23.05 штиль 0 20 км 8/4 600 м
[Sc Ac trans]
+13.4 +12.3 93 +13 +13 1012.7 993.4
21 23.05 З 1 20 км ясно +12.9 +12.2 96 +13 +13 1012.8 993.6
00 24.05 З 1 20 км ясно +12.4 +10.8 90 +12 +12 1012.2 992.9
03 24.05 ЮЗ 1 20 км 9/4 600 м
[Sc Ac trans]
+13.0 +10.7 86 +13 +14 1012.3 993.0 +11.7
06 24.05 З 2 20 км 3/1 600 м
[Cu hum Ac trans]
+21.8 +11.4 52 +24 +33 комфорт 1011.6 992.9
09 24.05 З 2 20 км 6/6 600 м
[Cu med, cong]
+24.1 +10.7 43 +25 +33 комфорт 1011.0 992.5
12 24.05 СЗ 2 20 км 8/6 600 м
[Cu med, cong Ci fib]
+25.9 +9.0 34 +26 +31 жарко 1010.0 991.6
15 24.05 З 1 20 км 4/0
[Ci fib]
+26.1 +8.4 33 +26 +28 жарко 1010.0 991.6 +26.8
18 24.05 СВ 1 20 км 4/0
[Ac trans]
+16.6 +12.3 76 +17 +17 1011.2 992.3
21 24.05 ЮВ 1 20 км 8/0
[Ac trans]
+16.3 +11.9 75 +17 +17 1011.0 992.0
00 25.05 ЮВ 1 20 км 8/8 600 м
[Sc]
+15.5 +12.2 81 +16 +16 1010.6 991.6
03 25.05 СВ 1 20 км 9/0
[Ac trans]
+15.4 +12.8 84 +16 +17 1010.7 991.6 +14.2
06 25.05 В 3 20 км 6/0
[Ci fib]
+23.9 +12.2 48 +26 +34 жарко 1008.9 990.4
09 25.05 В 5-10
{11}
20 км 4/0
[Cc]
+26.7 +9.2 33 +27 +36 жарко 1007.1 988.8
12 25.05 Ю 3
{13}
20 км 10/10 600 м
[Cb cap]
+26.4 +9.8 35 +27 +27 жарко 1008.2 989.8
15 25.05 ЮВ 2 20 км {ливн. осадки} 10/10 600 м
[Cb cap]
+22.7 +12.4 52 +25 +25 комфорт 1006.7 988.2 +28.7 0.5
18 25.05 З 3 20 км {ливн. осадки} ясно +18.9 +12.2 65 +20 +20 1010.8 991.8
21 25.05 СЗ 1 20 км ясно +15.9 +11.8 77 +17 +17 1012.1 993.0
00 26.05 ЮЗ 1 20 км 3/0
[Ac trans]
+12.4 +11.2 92 +12 +12 1012.2 992.9
03 26.05 СВ 1 20 км ясно +13.3 +13.0 98 +13 +15 1013.4 994.1 +9.8
06 26.05 Ю 3 20 км 8/8 600 м
[Sc]
+19.8 +13.2 66 +22 +24 комфорт 1013.7 994.9
09 26.05 ЮЗ 2 20 км 8/8 600 м
[Sc]
+22.8 +13.4 55 +26 +30 жарко 1013.3 994.6
12 26.05 Ю 3 10 км слаб. ливневой дождь {гроза} 10/10 600 м
[Cb calv]
+16.4 +11.6 73 +16 +16 1014.7 995.6
15 26.05 ЮЗ 1 20 км {ливн. осадки} 10/10 600 м
[Sc]
+19.2 +13.9 71 +22 +22 комфорт 1014.1 995.2 +23.0 4

 

Местоположение метеостанции Благодарный (Ставропольский край, Россия): широта 45.10 долгота 43.45 высота над уровнем моря 163 м.

В архиве по умолчанию представлена погода в Благодарном за последнюю неделю. Архивные данные за месяц целиком и за предыдущие месяцы, начиная с января 2011 года, Вы можете получить, выбрав интересующий диапазон дат из раскрывающегося списка и нажав кнопку "Ввод!".


*Определитесь, кто Вы:
робот инопланетянин человек

Внимание! Время в таблицах - всемирное. Для получения местного времени необходимо прибавить поправку, которая равна 3 ч.

Смотрите также архив погоды в соседних городах и на ближайших метеорологических станциях:

Погода в Светлограде (Ставропольский край, Россия) (55 км)
Погода в Александровском (Ставропольский край, Россия) (55 км)
Погода в Буденновске (Ставропольский край, Россия) (64 км)
Погода в Арзгире (Ставропольский край, Россия) (68 км)
Погода в Зеленокумске (Ставропольский край, Россия) (82 км)
Погода в Дивном (Ставропольский край, Россия) (92 км)
Погода в Минеральных Водах (Ставропольский край, Россия) (102 км)
Погода в Ставрополе (Ставропольский край, Россия) (108 км)
Погода в Георгиевске (Ставропольский край, Россия) (108 км)
Погода в Ики-Буруле (Калмыкия, Россия) (121 км)

Пояснения к столбцам:

Ветер - указаны скорость ветра в м/с - средняя за 10 мин, порывы в срок и между сроками (в фигурных скобках) и направление, откуда дует ветер: С - северный, СВ - северо-восточный, В - восточный, ЮВ - юго-восточный, Ю - южный, ЮЗ - юго-западный, З - западный, СЗ - северо-западный.
Видимость - горизонтальная дальность видимости в метрах или километрах. При видимости от 1 до 10 км при отсутствии осадков обычно наблюдается дымка, при ухудшении видимости до 1 км и менее - туман. В сухую погоду видимость может ухудшаться дымом, пылью или мглою.
Явления - указаны атмосферные явления, наблюдавшиеся в срок или в последний час перед сроком; фигурными скобками обозначены явления, наблюдавшиеся между сроками (за 1-3 часа до срока); квадратными скобками обозначены град или гололедные отложения с указанием их диаметра в мм.
Облачность - указаны через наклонную черту общая и нижняя облачность в баллах и высота нижней границы облаков в метрах; квадратными скобками обозначены формы облаков: Ci - перистые, Cs - перисто-слоистые, Cc - перисто-кучевые, Ac - высококучевые, As - высокослоистые, Sc - слоисто-кучевые, Ns - слоисто-дождевые, Cu - кучевые, Cb - кучево-дождевые. Подробнее классификацию облаков см. в Атласе облаков (PDF).
T - Температура воздуха - температура, измеренная на высоте 2 м над землей.
Td - Температура точки росы - температура, при понижении до которой содержащийся в воздухе водяной пар достигнет насыщения.
f - Относительная влажность воздуха - влажноcть воздуха, измеренная на высоте 2 м над землей.
Te - Эффективная температура - температура, которую ощущает одетый по сезону человек в тени. Характеристика душности погоды. При расчете учитывается влияние влажности воздуха и скорости ветра на теплоощущения человека.
Tes - Эффективная температура на солнце - температура, которую ощущает человек, с поправкой на солнечный нагрев. Характеристика знойности погоды. Зависит от высоты солнца над горизонтом, облачности и скорости ветра. Ночью, в пасмурную погоду, а также при ветре 12 м/с и более поправка равна нулю.
P - Атмосферное давление - приведенное к уровню моря атмосферное давление.
Po - Атмосферное давление - измеренное на уровне метеостанции атмосферное давление.
Tmin - Минимальная температура - минимум температуры воздуха на высоте 2 м над землей.
Tmax - Максимальная температура - максимум температуры воздуха на высоте 2 м над землей.
R - Количество осадков - Количество выпавших осадков за период времени, мм. При наведении курсора мыши на число - период времени, за который выпало указанное количество осадков.
R24 - Количество осадков - Количество выпавших осадков за 24 часа, мм.
S - Снежный покров - Высота снежного покрова, см. При наведении курсора мыши на число - состояние снежного покрова и степень покрытия местности в баллах.